TimeCDT,TemperatureF,Dew PointF,Humidity,Sea Level PressureIn,VisibilityMPH,Wind Direction,Wind SpeedMPH,Gust SpeedMPH,PrecipitationIn,Events,Conditions,WindDirDegrees,DateUTC
12:53 AM,51.1,46.0,83,29.98,10.0,WSW,9.2,-,N/A,,Clear,240,2013-05-11 05:53:00
1:53 AM,50.0,46.0,86,29.96,10.0,WSW,8.1,-,N/A,,Clear,250,2013-05-11 06:53:00
2:53 AM,51.1,46.0,83,29.95,10.0,West,10.4,-,N/A,,Mostly Cloudy,260,2013-05-11 07:53:00
3:53 AM,54.0,44.1,69,29.98,10.0,NNW,18.4,24.2,N/A,,Scattered Clouds,330,2013-05-11 08:53:00
4:53 AM,51.1,41.0,68,30.01,10.0,NNW,18.4,27.6,N/A,,Partly Cloudy,330,2013-05-11 09:53:00
5:53 AM,48.0,37.9,68,30.04,10.0,NNW,18.4,26.5,N/A,,Clear,340,2013-05-11 10:53:00
6:53 AM,46.9,36.0,66,30.08,10.0,NNW,17.3,25.3,N/A,,Clear,330,2013-05-11 11:53:00
7:53 AM,48.0,34.0,58,30.11,10.0,NNW,25.3,32.2,N/A,,Clear,330,2013-05-11 12:53:00
8:53 AM,50.0,33.1,52,30.12,10.0,NNW,21.9,34.5,N/A,,Clear,340,2013-05-11 13:53:00
9:53 AM,51.1,30.9,46,30.15,10.0,North,24.2,34.5,N/A,,Clear,350,2013-05-11 14:53:00
10:53 AM,53.1,30.0,41,30.16,10.0,NNW,31.1,44.9,N/A,,Clear,340,2013-05-11 15:53:00
11:53 AM,54.0,30.9,41,30.16,10.0,NNW,26.5,35.7,N/A,,Scattered Clouds,340,2013-05-11 16:53:00
12:53 PM,53.1,30.0,41,30.17,10.0,NW,32.2,39.1,N/A,,Mostly Cloudy,320,2013-05-11 17:53:00
1:53 PM,54.0,30.0,40,30.17,10.0,NW,23.0,34.5,N/A,,Scattered Clouds,320,2013-05-11 18:53:00
2:53 PM,55.0,27.0,34,30.17,10.0,North,28.8,36.8,N/A,,Partly Cloudy,350,2013-05-11 19:53:00
3:53 PM,55.0,25.0,31,30.17,10.0,NNW,27.6,41.4,N/A,,Clear,340,2013-05-11 20:53:00
5:53 PM,54.0,21.0,28,30.17,10.0,NNW,26.5,35.7,N/A,,Clear,340,2013-05-11 22:53:00
6:53 PM,53.1,19.0,26,30.18,10.0,NNW,21.9,31.1,N/A,,Clear,340,2013-05-11 23:53:00
7:53 PM,51.1,19.0,28,30.18,10.0,NNW,17.3,27.6,N/A,,Clear,340,2013-05-12 00:53:00
8:53 PM,48.9,19.9,32,30.19,10.0,NNW,12.7,21.9,N/A,,Clear,340,2013-05-12 01:53:00
9:53 PM,46.0,24.1,42,30.21,10.0,NW,10.4,-,N/A,,Clear,320,2013-05-12 02:53:00
10:53 PM,44.1,25.0,47,30.21,10.0,NW,6.9,-,N/A,,Clear,320,2013-05-12 03:53:00
11:53 PM,42.1,25.0,51,30.21,10.0,NW,6.9,-,N/A,,Clear,320,2013-05-12 04:53:00